COSMOS 1340

Satellite information

Favourite Embed

Satellite Type and Status

PAYLOADDECAYED

Key statistics

Satellite COSMOS 1340 at a glance.

Uptime

15750

Days in orbit

Revolutions

≈ 16.5

Per day

Orbit

LEO

Low Earth Orbit

Inclination

81.1

Latest

Satellite identification and parameters

Extended collection of information and parameters for COSMOS 1340.

Object identification

Identified? True

Debris? False

Object name: COSMOS 1340

International designator: 1982-013A

Object number (NORAD): 13067

Object ID (CCSDS): 13067

Country: COMMONWEALTH OF INDEPENDENT STATES (CIS)

Current information (Y/N): Y

RCS size: LARGE

Orbital parameters

Decay date: April 4, 2025

Period: 87.482 minutes

Inclination: 81.1376 deg

SMA: 6527.893 km

Apoapsis: 155.291 km

Periapsis: 144.225 km

RAAN: 9.5213 deg

Eccentricy: 0.0008476

Argument of periapsis: 233.8261 deg

Mean anomaly: 233.66 deg

Mean motion: 16.46050672 rev/day

Mean motion (dot): 0.15183099 rev/day2

B* drag term: 0.00034145 1/REarth

Two-line elements (TLE)

Creation date: April 4, 2025, 3:26 a.m.

Reference frame: TEME

Reference center: EARTH

Epoch: April 4, 2025, 1:01 a.m. UTC

TLE line 0: 0 COSMOS 1340

TLE line 1: 1 13067U 82013A 25094.04292280 .15183099 -88184-6 34145-3 0 9990

TLE line 2: 2 13067 81.1376 9.5213 0008476 233.8261 233.6600 16.46050672362621

Live tracking on map

Satellite COSMOS 1340 has decayed and is no longer in orbit. No tracking available.

In-orbit conjunctions

Satellite COSMOS 1340 has decayed and is no longer in orbit. No conjunctions available.

Associated space launch

Tselina-D satellites provided detailed observation of radio sources detected by the smaller Tselina-O satellites as part of the Tselina ELINT system.

COSMOS 1340 was lifted into orbit during the mission ‘Vostok 8A92M | Tselina-D 33’, on board a Vostok 8A92M space rocket.

The launch took place on Feb. 19, 1982, 1:42 a.m. from 16/2.

For more information about the launch, click the button.

Launch to space Vostok 8A92M | Tselina-D 33
Vostok 8A92M | Tselina-D 33

Agency: N/A

Status: Launch Successful

Launch date: Feb. 19, 1982, 1:42 a.m. UTC

Rocket: Vostok 8A92M

Launch pad: 16/2

Location: Plesetsk Cosmodrome, Russian Federation

...

Latest news about this satellite

There are no fresh news available about this satellite. Check back as we update our databases every day.


Newsletter sign-up

Weekly statistics, charts and insights to help you stay on top of the space industry.